Schneifelwetter: Wetterstation Hallschlag, 537 m . NN
Wetterdaten: Samstag, 20.03.2010
Datum Zeit Temp. A. Feuchte A. Luftdruck Regen Wind Richtung Richtung Sonnenschein Helligkeit T Regen Taupunkt Windchill
20.03.2010 00:10 10,7 C 71 % 1011 hPa 0,0 l/m 14,9 km/h (3 Bft) S45 175 0 min 0 lux 0,00 min 5,7 C 6,0 C
20.03.2010 00:25 10,7 C 72 % 1011 hPa 0,0 l/m 18,8 km/h (3 Bft) S-SW45 205 0 min 0 lux 0,00 min 5,9 C 4,6 C
20.03.2010 00:40 10,4 C 73 % 1011 hPa 0,0 l/m 23,6 km/h (4 Bft) SW22.5 215 0 min 0 lux 0,00 min 5,8 C 2,7 C
20.03.2010 00:55 10,2 C 76 % 1012 hPa 0,0 l/m 26,5 km/h (4 Bft) S-SW67.5 200 0 min 0 lux 0,00 min 6,2 C 1,7 C
20.03.2010 01:10 9,8 C 79 % 1012 hPa 0,0 l/m 26,1 km/h (4 Bft) SW45 215 0 min 0 lux 0,00 min 6,3 C 1,3 C
20.03.2010 01:25 9,6 C 82 % 1012 hPa 0,3 l/m 24,6 km/h (4 Bft) SW22.5 215 0 min 0 lux 15,00 min 6,7 C 1,4 C
20.03.2010 01:40 9,3 C 84 % 1012 hPa 0,3 l/m 30,0 km/h (5 Bft) SW45 220 0 min 0 lux 15,00 min 6,7 C -0,3 C
20.03.2010 01:55 9,1 C 85 % 1011 hPa 0,0 l/m 18,0 km/h (3 Bft) S-SW22.5 210 0 min 0 lux 0,00 min 6,7 C 2,8 C
20.03.2010 02:10 9,0 C 87 % 1011 hPa 0,3 l/m 16,9 km/h (3 Bft) SW45 230 0 min 0 lux 15,00 min 7,0 C 3,1 C
20.03.2010 02:25 8,9 C 89 % 1010 hPa 0,3 l/m 23,5 km/h (4 Bft) S-SW45 200 0 min 0 lux 15,00 min 7,2 C 0,8 C
20.03.2010 02:40 9,0 C 90 % 1010 hPa 0,0 l/m 19,9 km/h (4 Bft) SW22.5 230 0 min 0 lux 0,00 min 7,4 C 2,0 C
20.03.2010 02:55 9,0 C 91 % 1010 hPa 0,0 l/m 19,5 km/h (3 Bft) SW22.5 225 0 min 0 lux 0,00 min 7,6 C 2,2 C
20.03.2010 03:10 9,0 C 93 % 1010 hPa 0,0 l/m 25,4 km/h (4 Bft) SW45 215 0 min 0 lux 0,00 min 7,9 C 0,4 C
20.03.2010 03:25 9,1 C 94 % 1010 hPa 0,0 l/m 25,6 km/h (4 Bft) SW67.5 220 0 min 0 lux 0,00 min 8,2 C 0,5 C
20.03.2010 03:40 9,2 C 94 % 1010 hPa 0,0 l/m 32,7 km/h (5 Bft) SW45 225 0 min 0 lux 0,00 min 8,3 C -1,0 C
20.03.2010 03:55 9,2 C 95 % 1010 hPa 0,0 l/m 30,5 km/h (5 Bft) SW45 215 0 min 0 lux 0,00 min 8,4 C -0,6 C
20.03.2010 04:10 9,3 C 95 % 1010 hPa 0,0 l/m 28,6 km/h (4 Bft) SW45 215 0 min 0 lux 0,00 min 8,5 C -0,0 C
20.03.2010 04:25 9,3 C 95 % 1010 hPa 0,0 l/m 23,6 km/h (4 Bft) SW45 230 0 min 0 lux 0,00 min 8,5 C 1,3 C
20.03.2010 04:40 9,3 C 95 % 1009 hPa 0,0 l/m 24,9 km/h (4 Bft) W-SW45 240 0 min 0 lux 0,00 min 8,5 C 0,9 C
20.03.2010 04:55 9,3 C 95 % 1010 hPa 0,0 l/m 30,4 km/h (5 Bft) S-SW45 210 0 min 0 lux 0,00 min 8,5 C -0,4 C
20.03.2010 05:10 9,4 C 96 % 1009 hPa 0,0 l/m 26,6 km/h (4 Bft) SW22.5 215 0 min 0 lux 0,00 min 8,8 C 0,6 C
20.03.2010 05:25 9,5 C 96 % 1009 hPa 0,0 l/m 29,4 km/h (5 Bft) SW45 215 0 min 0 lux 0,00 min 8,9 C 0,1 C
20.03.2010 05:40 9,6 C 96 % 1010 hPa 0,0 l/m 29,8 km/h (5 Bft) W-SW22.5 245 0 min 0 lux 0,00 min 9,0 C 0,1 C
20.03.2010 05:55 9,6 C 97 % 1010 hPa 0,0 l/m 33,6 km/h (5 Bft) W-SW45 240 0 min 0 lux 0,00 min 9,1 C -0,6 C
20.03.2010 06:10 9,8 C 97 % 1010 hPa 0,0 l/m 35,1 km/h (5 Bft) W-SW45 245 0 min 0 lux 0,00 min 9,3 C -0,6 C
20.03.2010 06:25 9,9 C 97 % 1010 hPa 2,1 l/m 34,4 km/h (5 Bft) W-SW45 245 0 min 75 lux 15,00 min 9,4 C -0,3 C
20.03.2010 06:40 9,9 C 96 % 1010 hPa 0,0 l/m 44,2 km/h (6 Bft) W-SW45 255 0 min 356 lux 0,00 min 9,3 C -1,8 C
20.03.2010 06:55 9,9 C 96 % 1010 hPa 0,0 l/m 34,3 km/h (5 Bft) W-SW45 255 0 min 1,13 klux 0,00 min 9,3 C -0,3 C
20.03.2010 07:10 10,0 C 96 % 1010 hPa 0,0 l/m 39,2 km/h (6 Bft) W-SW22.5 250 0 min 1,25 klux 0,00 min 9,4 C -1,0 C
20.03.2010 07:25 10,0 C 96 % 1010 hPa 0,0 l/m 34,6 km/h (5 Bft) W-SW45 245 0 min 1,53 klux 0,00 min 9,4 C -0,2 C
20.03.2010 07:40 10,0 C 96 % 1010 hPa 0,0 l/m 29,8 km/h (5 Bft) W-SW45 250 0 min 1,81 klux 0,00 min 9,4 C 0,7 C
20.03.2010 07:55 10,1 C 97 % 1010 hPa 0,0 l/m 32,7 km/h (5 Bft) W-SW22.5 250 0 min 3,29 klux 0,00 min 9,6 C 0,3 C
20.03.2010 08:16 10,1 C 97 % 1010 hPa 0,0 l/m 32,4 km/h (5 Bft) W-SW22.5 240 0 min 2,34 klux 0,00 min 9,6 C 0,3 C
20.03.2010 08:31 10,2 C 97 % 1010 hPa 0,0 l/m 37,0 km/h (5 Bft) W-SW45 240 0 min 8,61 klux 0,00 min 9,7 C -0,4 C
20.03.2010 08:46 10,4 C 97 % 1010 hPa 0,3 l/m 32,6 km/h (5 Bft) W-SW22.5 250 0 min 6,44 klux 15,00 min 9,9 C 0,7 C
20.03.2010 09:01 10,4 C 97 % 1010 hPa 0,0 l/m 38,8 km/h (5 Bft) SW45 215 0 min 6,70 klux 0,00 min 9,9 C -0,3 C
20.03.2010 09:16 10,5 C 97 % 1010 hPa 0,0 l/m 30,6 km/h (5 Bft) W-SW22.5 250 0 min 6,27 klux 0,00 min 10,0 C 1,2 C
20.03.2010 09:31 10,6 C 96 % 1010 hPa 0,0 l/m 36,3 km/h (5 Bft) W-SW45 240 0 min 7,11 klux 0,00 min 10,0 C 0,3 C
20.03.2010 09:45 10,5 C 96 % 1010 hPa 0,0 l/m 33,7 km/h (5 Bft) SW22.5 235 0 min 3,68 klux 0,00 min 9,9 C 0,6 C
20.03.2010 10:01 10,5 C 97 % 1010 hPa 0,0 l/m 31,1 km/h (5 Bft) W-SW45 240 0 min 4,22 klux 0,00 min 10,0 C 1,1 C
20.03.2010 10:16 10,5 C 96 % 1011 hPa 0,0 l/m 40,5 km/h (6 Bft) W-SW45 240 0 min 4,82 klux 0,00 min 9,9 C -0,4 C
20.03.2010 10:31 10,5 C 96 % 1011 hPa 0,3 l/m 41,1 km/h (6 Bft) W-SW67.5 240 0 min 6,12 klux 15,00 min 9,9 C -0,5 C
20.03.2010 10:46 10,6 C 96 % 1011 hPa 0,0 l/m 37,3 km/h (5 Bft) W-SW45 255 0 min 16,0 klux 0,00 min 10,0 C 0,2 C
20.03.2010 11:01 11,1 C 96 % 1011 hPa 0,0 l/m 38,2 km/h (5 Bft) W-SW22.5 250 0 min 25,4 klux 0,00 min 10,5 C 0,8 C
20.03.2010 11:16 11,4 C 96 % 1011 hPa 0,6 l/m 37,4 km/h (5 Bft) W-SW45 250 0 min 19,8 klux 15,00 min 10,8 C 1,3 C
20.03.2010 11:31 11,2 C 95 % 1011 hPa 0,3 l/m 29,2 km/h (5 Bft) W-SW22.5 250 0 min 11,1 klux 15,00 min 10,4 C 2,5 C
20.03.2010 11:45 10,9 C 95 % 1011 hPa 1,2 l/m 31,5 km/h (5 Bft) W-SW22.5 255 0 min 15,8 klux 14,00 min 10,1 C 1,6 C
20.03.2010 12:01 11,6 C 95 % 1011 hPa 0,0 l/m 31,0 km/h (5 Bft) W-SW22.5 250 0 min 38,9 klux 0,00 min 10,8 C 2,7 C
20.03.2010 12:16 11,8 C 93 % 1011 hPa 0,3 l/m 29,8 km/h (5 Bft) SW45 235 0 min 31,0 klux 15,00 min 10,7 C 3,2 C
20.03.2010 12:31 11,6 C 92 % 1011 hPa 0,0 l/m 41,1 km/h (6 Bft) W-SW45 240 0 min 20,4 klux 0,00 min 10,3 C 1,1 C
20.03.2010 12:46 11,8 C 92 % 1011 hPa 0,3 l/m 27,6 km/h (4 Bft) W-SW45 240 0 min 27,8 klux 15,00 min 10,5 C 3,7 C
20.03.2010 13:01 12,0 C 92 % 1010 hPa 0,0 l/m 23,3 km/h (4 Bft) W-SW45 250 0 min 28,6 klux 0,00 min 10,7 C 5,0 C
20.03.2010 13:16 12,4 C 92 % 1010 hPa 0,0 l/m 22,8 km/h (4 Bft) SW45 230 15 min 51,5 klux 0,00 min 11,1 C 5,6 C
20.03.2010 13:30 12,4 C 90 % 1010 hPa 0,0 l/m 33,0 km/h (5 Bft) S-SW45 195 14 min 62,4 klux 0,00 min 10,8 C 3,5 C
20.03.2010 13:46 12,4 C 89 % 1010 hPa 0,0 l/m 29,6 km/h (5 Bft) SW45 230 0 min 35,1 klux 0,00 min 10,6 C 4,1 C
20.03.2010 14:01 12,5 C 88 % 1010 hPa 0,0 l/m 32,4 km/h (5 Bft) S-SW22.5 195 15 min 42,2 klux 0,00 min 10,6 C 3,7 C
20.03.2010 14:16 12,6 C 88 % 1009 hPa 0,0 l/m 34,1 km/h (5 Bft) S-SW22.5 195 0 min 33,5 klux 0,00 min 10,7 C 3,6 C
20.03.2010 14:31 12,7 C 87 % 1010 hPa 0,0 l/m 34,8 km/h (5 Bft) S-SW45 195 15 min 47,6 klux 0,00 min 10,6 C 3,6 C
20.03.2010 14:46 12,6 C 86 % 1010 hPa 0,0 l/m 37,9 km/h (5 Bft) S-SW22.5 210 0 min 28,3 klux 0,00 min 10,3 C 3,0 C
20.03.2010 15:01 12,0 C 87 % 1009 hPa 0,0 l/m 39,4 km/h (6 Bft) W-SW45 240 0 min 15,6 klux 0,00 min 9,9 C 1,9 C
20.03.2010 15:15 11,6 C 88 % 1009 hPa 0,0 l/m 44,4 km/h (6 Bft) S-SW45 205 0 min 16,2 klux 0,00 min 9,7 C 0,7 C
20.03.2010 15:31 11,5 C 89 % 1009 hPa 0,0 l/m 37,5 km/h (5 Bft) S-SW45 210 0 min 14,3 klux 0,00 min 9,8 C 1,5 C
20.03.2010 15:46 11,2 C 89 % 1009 hPa 0,0 l/m 38,3 km/h (5 Bft) SW45 230 0 min 11,9 klux 0,00 min 9,5 C 0,9 C
20.03.2010 16:01 10,8 C 91 % 1009 hPa 0,0 l/m 42,2 km/h (6 Bft) SW22.5 225 0 min 4,53 klux 0,00 min 9,4 C -0,2 C
20.03.2010 16:16 10,8 C 93 % 1009 hPa 0,3 l/m 37,7 km/h (5 Bft) S-SW45 210 0 min 18,7 klux 15,00 min 9,7 C 0,4 C
20.03.2010 16:31 10,9 C 93 % 1009 hPa 0,0 l/m 34,7 km/h (5 Bft) SW45 220 0 min 12,9 klux 0,00 min 9,8 C 1,0 C
20.03.2010 16:45 10,7 C 92 % 1009 hPa 0,0 l/m 29,0 km/h (5 Bft) S-SW45 210 0 min 8,41 klux 0,00 min 9,5 C 1,9 C
20.03.2010 17:00 10,4 C 93 % 1009 hPa 0,0 l/m 40,9 km/h (6 Bft) SW45 225 0 min 5,54 klux 0,00 min 9,3 C -0,6 C
20.03.2010 17:16 10,5 C 93 % 1009 hPa 0,0 l/m 38,8 km/h (5 Bft) SW45 215 0 min 5,99 klux 0,00 min 9,4 C -0,2 C
20.03.2010 17:31 10,4 C 93 % 1009 hPa 0,0 l/m 33,0 km/h (5 Bft) SW45 225 0 min 2,94 klux 0,00 min 9,3 C 0,6 C
20.03.2010 17:46 10,3 C 94 % 1009 hPa 0,0 l/m 39,7 km/h (6 Bft) SW45 215 0 min 2,03 klux 0,00 min 9,4 C -0,6 C
20.03.2010 18:01 10,2 C 94 % 1009 hPa 0,0 l/m 35,4 km/h (5 Bft) SW45 215 0 min 2,02 klux 0,00 min 9,3 C -0,1 C
20.03.2010 18:16 10,3 C 94 % 1009 hPa 0,0 l/m 37,9 km/h (5 Bft) SW45 225 0 min 1,19 klux 0,00 min 9,4 C -0,3 C
20.03.2010 18:31 10,3 C 94 % 1009 hPa 0,0 l/m 30,7 km/h (5 Bft) SW45 235 0 min 1,43 klux 0,00 min 9,4 C 0,9 C
20.03.2010 18:45 10,2 C 95 % 1009 hPa 0,0 l/m 40,2 km/h (6 Bft) S-SW22.5 210 0 min 1,25 klux 0,00 min 9,4 C -0,8 C
20.03.2010 19:01 10,2 C 95 % 1009 hPa 0,0 l/m 35,4 km/h (5 Bft) SW45 225 0 min 160 lux 0,00 min 9,4 C -0,1 C
20.03.2010 19:16 10,2 C 95 % 1009 hPa 0,0 l/m 34,3 km/h (5 Bft) SW45 215 0 min 32 lux 0,00 min 9,4 C 0,1 C
20.03.2010 19:31 10,2 C 96 % 1009 hPa 0,0 l/m 35,3 km/h (5 Bft) SW45 220 0 min 1 lux 0,00 min 9,6 C -0,1 C
20.03.2010 19:46 10,2 C 96 % 1009 hPa 0,0 l/m 32,9 km/h (5 Bft) SW45 225 0 min 0 lux 0,00 min 9,6 C 0,4 C
20.03.2010 20:01 10,2 C 96 % 1009 hPa 0,0 l/m 30,7 km/h (5 Bft) SW45 220 0 min 0 lux 0,00 min 9,6 C 0,8 C
20.03.2010 20:16 10,2 C 95 % 1009 hPa 0,0 l/m 30,5 km/h (5 Bft) SW67.5 230 0 min 0 lux 0,00 min 9,4 C 0,8 C
20.03.2010 20:30 10,3 C 95 % 1009 hPa 0,0 l/m 34,6 km/h (5 Bft) S-SW45 200 0 min 0 lux 0,00 min 9,5 C 0,2 C
20.03.2010 20:46 10,3 C 95 % 1009 hPa 0,0 l/m 41,5 km/h (6 Bft) SW45 215 0 min 0 lux 0,00 min 9,5 C -0,9 C
20.03.2010 21:01 10,3 C 95 % 1009 hPa 0,0 l/m 37,9 km/h (5 Bft) SW45 215 0 min 0 lux 0,00 min 9,5 C -0,3 C
20.03.2010 21:16 10,2 C 95 % 1009 hPa 0,0 l/m 36,0 km/h (5 Bft) S-SW45 205 0 min 0 lux 0,00 min 9,4 C -0,2 C
20.03.2010 21:31 10,2 C 96 % 1009 hPa 0,0 l/m 39,2 km/h (6 Bft) S-SW45 210 0 min 0 lux 0,00 min 9,6 C -0,7 C
20.03.2010 21:46 10,2 C 96 % 1009 hPa 0,0 l/m 39,4 km/h (6 Bft) S-SW45 205 0 min 0 lux 0,00 min 9,6 C -0,7 C
20.03.2010 21:45 10,2 C 96 % 1009 hPa 0,0 l/m 39,4 km/h (6 Bft) S-SW45 205 0 min 0 lux 0,00 min 9,6 C -0,7 C
20.03.2010 22:00 10,2 C 96 % 1009 hPa 0,0 l/m 32,3 km/h (5 Bft) S-SW45 200 0 min 0 lux 0,00 min 9,6 C 0,5 C
20.03.2010 22:16 10,2 C 96 % 1009 hPa 0,0 l/m 31,0 km/h (5 Bft) S-SW45 200 0 min 0 lux 0,00 min 9,6 C 0,7 C
20.03.2010 22:31 10,2 C 96 % 1009 hPa 0,0 l/m 29,3 km/h (5 Bft) S-SW45 205 0 min 0 lux 0,00 min 9,6 C 1,1 C
20.03.2010 22:46 10,0 C 96 % 1009 hPa 0,0 l/m 32,0 km/h (5 Bft) S-SW45 210 0 min 0 lux 0,00 min 9,4 C 0,2 C
20.03.2010 23:01 10,0 C 96 % 1009 hPa 0,0 l/m 26,8 km/h (4 Bft) S-SW45 205 0 min 0 lux 0,00 min 9,4 C 1,4 C
20.03.2010 23:16 10,0 C 96 % 1009 hPa 0,0 l/m 31,4 km/h (5 Bft) S22.5 180 0 min 0 lux 0,00 min 9,4 C 0,4 C
20.03.2010 23:30 10,0 C 97 % 1009 hPa 0,0 l/m 43,1 km/h (6 Bft) SW45 220 0 min 0 lux 0,00 min 9,5 C -1,5 C
20.03.2010 23:46 9,9 C 97 % 1009 hPa 0,0 l/m 32,2 km/h (5 Bft) SW45 225 0 min 0 lux 0,00 min 9,4 C 0,1 C
_ Min-Zeit 02:25 00:10 04:40 - 00:10 - - - - - 00:10 06:40
Minimum _ 8,9 C 71 % 1009 hPa - 14,9 km/h (3 Bft) - - - - - 5,7 C -1,8 C
_ Max-Zeit 14:31 05:55 00:55 06:25 15:15 - - 13:16 13:30 01:25 13:16 00:10
Maximum _ 12,7 C 97 % 1012 hPa 2,1 l/m 44,4 km/h
S-SW (6 Bft)
- - 15 min 62,4 klux 15,00 min 11,1 C 6,0 C
Durchschnitt _ 10,4 C 93 % 1010 hPa #6,9 l/m 32,5 km/h (5 Bft) SW - #59 min. 7,57 klux #3:14 h 9,2 C 0,9 C